Location: ?????
(37.7324°N, 23.9257°E)
Time: 22:31:17
(UTC+00:00)

PAYLOAD B - Pass Details

Date: 29 November 2020
Orbit: 849 x 872 km, 99.1° (Epoch: 19 January)

Event Time Altitude Azimuth Distance (km) Brightness Sun altitude
Rises 04:36:19 0° 12° (NNE) 3,429 7.3 -8.6°
Reaches altitude 10° 04:38:42 10° 11° (NNE) 2,487 6.6 -8.1°
Maximum altitude 04:44:13 80° 285° (WNW) 866 4.2 -7.1°
Drops below altitude 10° 04:49:41 10° 200° (SSW) 2,465 6.7 -6.1°
Sets 04:52:02 0° 199° (SSW) 3,397 7.4 -5.7°
